Weather History for TJSJ - November, 2011

Change the Weather History Date:

Sunday, November 27, 2011

  Actual Average Record
Temperature  
Mean Temperature 79 °F 80 °F  
Max Temperature 83 °F 85 °F 92 °F (1993)
Min Temperature 74 °F 75 °F 68 °F (1985)
Degree Days  
Heating Degree Days 0 0  
Month to date heating degree days 0 0  
Since 1 July heating degree days 0 0  
Cooling Degree Days 14 15  
Month to date cooling degree days 429 423  
Year to date cooling degree days 5173 5382  
Growing Degree Days 27 (Base 50)    
Moisture  
Dew Point 72 °F    
Average Humidity 84    
Maximum Humidity 94    
Minimum Humidity 74    
Precipitation  
Precipitation 1.57 in 0.19 in 4.05 in (1915)
Month to date precipitation 4.58 5.79  
Year to date precipitation 79.80 50.77  
Snow  
Snow 0.00 in - - ()
Month to date snowfall 0.0  
Since 1 July snowfall 0.0  
Since 1 September snowfall 0.0  
Snow Depth 0.00 in    
Sea Level Pressure  
Sea Level Pressure 29.84 in    
Wind  
Wind Speed 3 mph (NNE)    
Max Wind Speed 15 mph    
Max Gust Speed 16 mph    
Visibility 9 miles    
Events Rain    
T = Trace of Precipitation, MM = Missing Value Source: NWS Daily Summary

Daily Weather History Graph

Daily Weather History Graph

Search for Another Location

Airport or City:

Trip Planner

Search our weather history database for the weather conditions in past years. The results will help you decide how hot, cold, wet, or windy it might be!

Date:

Astronomy

Nov. 27, 2011 Rise Set
Actual Time 6:37 AM AST 5:45 PM AST
Civil Twilight 6:13 AM AST 6:09 PM AST
Nautical Twilight 5:47 AM AST 6:36 PM AST
Astronomical Twilight 5:20 AM AST 7:02 PM AST
Moon 8:55 AM AST (11/27) 8:21 PM AST (11/27)
Length of Visible Light 11h 55m
Length of Day
11h 08m
Waxing Crescent, 8% of the Moon is Illuminated
Nov 27
Waxing Crescent
Dec 2
First Quarter
Dec 10
Full
Dec 17
Last Quarter
Dec 24
New

Hourly Weather History & Observations

Time (AST) Temp. Heat Index Dew Point Humidity Pressure Visibility Wind Dir Wind Speed Gust Speed Precip Events Conditions
12:56 AM 75.0 °F - 71.1 °F 87% 29.90 in 10.0 mi SW 3.5 mph - N/A   Partly Cloudy
1:56 AM 75.0 °F - 71.1 °F 87% 29.88 in 3.0 mi East 8.1 mph - 0.03 in Rain Rain
2:56 AM 73.9 °F - 71.1 °F 91% 29.86 in 10.0 mi Calm Calm - 0.29 in   Mostly Cloudy
3:56 AM 73.9 °F - 72.0 °F 93% 29.84 in 10.0 mi Calm Calm - 0.01 in   Mostly Cloudy
4:56 AM 73.9 °F - 72.0 °F 93% 29.84 in 10.0 mi Calm Calm - 0.01 in   Scattered Clouds
5:56 AM 75.0 °F - 72.0 °F 90% 29.85 in 10.0 mi Calm Calm - N/A   Scattered Clouds
6:56 AM 75.0 °F - 72.0 °F 90% 29.86 in 10.0 mi Calm Calm - 0.02 in   Mostly Cloudy
7:56 AM 75.0 °F - 73.0 °F 94% 29.87 in 10.0 mi Calm Calm - N/A   Overcast
8:56 AM 77.0 °F - 73.0 °F 88% 29.89 in 10.0 mi Calm Calm - N/A   Scattered Clouds
9:56 AM 77.0 °F - 73.0 °F 88% 29.89 in 10.0 mi Calm Calm - N/A   Mostly Cloudy
10:56 AM 80.1 °F 84.2 °F 73.0 °F 79% 29.88 in 10.0 mi North 4.6 mph - 0.00 in   Scattered Clouds
11:56 AM 81.0 °F 85.8 °F 73.0 °F 77% 29.87 in 10.0 mi North 6.9 mph - 0.00 in   Mostly Cloudy
12:56 PM 81.0 °F 85.8 °F 73.0 °F 77% 29.84 in 10.0 mi ENE 10.4 mph - N/A   Mostly Cloudy
1:56 PM 81.0 °F 84.9 °F 71.1 °F 72% 29.81 in 10.0 mi ENE 8.1 mph - N/A   Mostly Cloudy
2:56 PM 81.0 °F 84.9 °F 71.1 °F 72% 29.80 in 10.0 mi ENE 4.6 mph - N/A   Mostly Cloudy
3:56 PM 81.0 °F 84.9 °F 71.1 °F 72% 29.80 in 10.0 mi NE 3.5 mph - N/A   Mostly Cloudy
4:56 PM 81.0 °F 85.2 °F 72.0 °F 74% 29.80 in 10.0 mi Calm Calm - N/A   Scattered Clouds
5:56 PM 75.9 °F - 72.0 °F 87% 29.81 in 9.0 mi Variable 4.6 mph - 0.29 in Rain Light Rain
6:25 PM 75.2 °F - 73.4 °F 94% 29.82 in 2.0 mi East 9.2 mph - 0.49 in Rain Heavy Rain
6:56 PM 75.9 °F - 73.0 °F 91% 29.81 in 5.0 mi Calm Calm - 0.89 in Rain Light Rain
7:56 PM 75.9 °F - 73.0 °F 91% 29.81 in 10.0 mi Calm Calm - 0.01 in   Scattered Clouds
8:56 PM 75.9 °F - 73.0 °F 91% 29.83 in 10.0 mi West 4.6 mph - 0.01 in Rain Light Rain
9:56 PM 75.9 °F - 73.9 °F 94% 29.83 in 10.0 mi Calm Calm - 0.01 in   Scattered Clouds
10:56 PM 75.9 °F - 73.0 °F 91% 29.83 in 10.0 mi WSW 3.5 mph - N/A   Scattered Clouds
11:56 PM 75.9 °F - 73.0 °F 91% 29.83 in 10.0 mi NW 8.1 mph - N/A   Overcast